Location: Arrodets-la-Barthe
(43.0306°N, 0.2829°E)
Time: 19:40:28
(UTC+00:00)

CENTAUR R/B - Pass Details

Date: 24 October 2021
Orbit: 728 x 1459 km, 63.4° (Epoch: 26 November)

Event Time Altitude Azimuth Distance (km) Brightness Sun altitude
Rises 19:50:39 0° 323° (NW) 4,052 6.4 -31.3°
Reaches altitude 10° 19:53:40 10° 334° (NNW) 3,197 5.6 -31.9°
Enters shadow 19:59:44 31° 25° (NNE) 2,183 4.1 -33.0°
